Location: Nairn
(57.5833°N, 3.8667°W)
Time: 16:21:31
(UTC+00:00)

Cosmos 1538 Rocket - Pass Details

Date: 07 August 2020
Orbit: 752 x 792 km, 74.0° (Epoch: 22 September)

Event Time Altitude Azimuth Distance (km) Brightness Sun altitude
Rises 01:24:13 0° 329° (NNW) 3,222 7.9 -14.9°
Reaches altitude 10° 01:26:36 10° 328° (NNW) 2,291 7.1 -14.9°
Maximum altitude 01:31:46 73° 245° (WSW) 792 3.9 -14.7°
Enters shadow 01:35:59 16° 162° (SSE) 1,922 5.6 -14.5°
